Location: Saint-Palais-sur-Mer
(45.6429°N, 1.0859°W)
Time: 00:34:57
(UTC+01:00)

Tiros 1 despin weight - Pass Details

Date: 14 February 2026
Orbit: 556 x 593 km, 48.2° (Epoch: 13 March)

Event Time Altitude Azimuth Distance (km) Brightness Sun altitude
Enters shadow 22:57:41 - 289° (WNW) 2,774 ? -45.7°
Rises 22:57:46 0° 288° (WNW) 2,739 - -45.7°
Reaches altitude 10° 23:00:06 10° 281° (WNW) 1,845 - -46.0°
Maximum altitude 23:04:03 40° 212° (SSW) 834 - -46.5°
Drops below altitude 10° 23:08:01 10° 142° (SE) 1,855 - -47.1°
Sets 23:10:22 0° 135° (SE) 2,756 - -47.4°
